Torna al catalogo

IRIDIUM 157

AttivoComunicazioniPO
NORAD 43251·PAYLOAD·🇺🇸 United States

Lanciato Mar 30, 2018 da Vandenberg Space Force Base

Loading…

Prossimi Passaggi (prossime 24 ore)

TLE

AggiornatoSource: CelesTrak SupGP

Epoca: Sep 14, 2026, 09:36 UTC

1 43251C 18030C   26257.40034722  .00004339  00000+0  15516-2 0  2576
2 43251  86.3912 253.1022 0002302  90.6054 167.4614 14.34212913    12

Traccia IRIDIUM 157 in tempo reale con AllMySat

Download on the App Store